FW9034 Weather Reports


Display with metric or nautical units.
time (UTC)temp
F
wind
direction
speed
MPH
gust
MPH
rain 1hr
in
rain 24hr
in
rain mn
in
humidity
%
barometer
mb
20260504185304 62 21 10.0 14.0 0.00 0.00 0.00 33 903.6
20260504184800 63 11 15.0 16.0 0.00 0.00 0.00 34 903.4
20260504184256 62 19 12.0 19.0 0.00 0.00 0.00 32 903.5
20260504183752 62 14 14.0 15.0 0.00 0.00 0.00 34 903.6
20260504183249 62 0 16.0 19.0 0.00 0.00 0.00 32 903.6
20260504182747 63 13 18.0 23.0 0.00 0.00 0.00 32 903.2
20260504182244 63 29 15.0 18.0 0.00 0.00 0.00 32 903.8
20260504181741 62 17 18.0 21.0 0.00 0.00 0.00 32 903.5
20260504181238 62 25 22.0 28.0 0.00 0.00 0.00 33 903.6
20260504180738 61 14 19.0 23.0 0.00 0.00 0.00 34 903.5
20260504180236 64 11 15.0 21.0 0.00 0.00 0.00 32 903.4
20260504175733 63 16 18.0 26.0 0.00 0.00 0.00 31 903.4
20260504175230 64 5 15.0 20.0 0.00 0.00 0.00 30 903.5
20260504174728 64 17 15.0 25.0 0.00 0.00 0.00 29 903.5
20260504174225 63 3 15.0 21.0 0.00 0.00 0.00 28 903.5
20260504173721 63 28 16.0 19.0 0.00 0.00 0.00 28 903.7
20260504173219 62 28 15.0 20.0 0.00 0.00 0.00 29 903.2
20260504172715 63 12 10.0 13.0 0.00 0.00 0.00 27 903.7
20260504172212 66 7 15.0 24.0 0.00 0.00 0.00 22 903.2
20260504171708 65 36 1.0 1.0 0.00 0.00 0.00 21 902.9
20260504171206 66 15 8.0 10.0 0.00 0.00 0.00 21 903.1
20260504170702 67 347 5.0 6.0 0.00 0.00 0.00 20 903.2
20260504170200 68 341 5.0 5.0 0.00 0.00 0.00 19 903.2
20260504160118 64 13 5.0 6.0 0.00 0.00 0.00 21 903.1
20260504151045 63 327 3.0 4.0 0.00 0.00 0.00 22 903.2
20260504150542 63 10 3.0 4.0 0.00 0.00 0.00 22 903.5
20260504141008 56 332 3.0 4.0 0.00 0.00 0.00 29 903.4
20260504140505 56 332 4.0 5.0 0.00 0.00 0.00 29 903.1
20260504130429 47 254 0.0 1.0 0.00 0.00 0.00 40 903.2
20260504110317 37 216 0.0 0.0 0.00 0.00 0.00 67 903.5
20260504100234 38 206 0.0 0.0 0.00 0.00 0.00 66 903.7
20260504081628 41 224 1.0 1.0 0.00 0.00 0.00 59 904.6
20260504081123 41 262 1.0 1.0 0.00 0.00 0.00 59 904.8
20260504080620 41 255 0.0 0.0 0.00 0.00 0.00 59 904.8
20260504080117 41 261 0.0 1.0 0.00 0.00 0.00 59 904.8
20260504050433 47 286 0.0 1.0 0.00 0.00 0.00 49 906.0
20260504045930 47 296 1.0 1.0 0.00 0.00 0.00 48 906.0
20260504045426 48 325 0.0 1.0 0.00 0.00 0.00 47 906.1
20260504044922 48 332 0.0 1.0 0.00 0.00 0.00 47 906.1
20260504044420 48 336 0.0 0.0 0.00 0.00 0.00 47 906.2
20260504043917 48 338 0.0 0.0 0.00 0.00 0.00 46 906.1
20260504043414 48 340 1.0 1.0 0.00 0.00 0.00 46 906.4
20260504042911 49 346 1.0 1.0 0.00 0.00 0.00 45 906.1
20260504042408 49 349 1.0 1.0 0.00 0.00 0.00 46 906.3
20260504041904 49 350 1.0 1.0 0.00 0.00 0.00 46 906.4
20260504041400 49 351 0.0 0.0 0.00 0.00 0.00 45 906.1
20260504040856 50 351 0.0 0.0 0.00 0.00 0.00 44 906.2
20260504040354 50 349 0.0 0.0 0.00 0.00 0.00 44 906.4
20260504035850 50 1 3.0 3.0 0.00 0.00 0.00 43 906.1
20260504035348 51 70 1.0 1.0 0.00 0.00 0.00 44 906.2
20260504034844 51 71 0.0 1.0 0.00 0.00 0.00 44 906.2
20260504034342 51 70 0.0 0.0 0.00 0.00 0.00 43 906.3
20260504033838 51 77 2.0 3.0 0.00 0.00 0.00 43 906.1
20260504033337 51 83 0.0 0.0 0.00 0.00 0.00 43 906.3
20260504032833 51 83 0.0 0.0 0.00 0.00 0.00 43 906.1
20260504032330 51 89 0.0 0.0 0.00 0.00 0.00 42 906.1
20260504031827 51 77 0.0 0.0 0.00 0.00 0.00 42 905.8
20260504031324 52 70 0.0 0.0 0.00 0.00 0.00 41 906.0
20260504030820 52 62 1.0 1.0 0.00 0.00 0.00 41 906.0
20260504030318 53 65 1.0 1.0 0.00 0.00 0.00 40 906.0
20260504025814 53 52 1.0 1.0 0.00 0.00 0.00 39 906.2
20260504025311 54 49 1.0 1.0 0.00 0.00 0.00 39 906.0
20260504024808 54 42 1.0 3.0 0.00 0.00 0.00 38 906.0
20260504024304 55 47 4.0 5.0 0.00 0.00 0.00 37 905.8
20260504023801 55 44 3.0 4.0 0.00 0.00 0.00 36 905.9
20260504023257 56 74 3.0 4.0 0.00 0.00 0.00 35 905.9
20260504022753 56 52 3.0 4.0 0.00 0.00 0.00 34 906.0
20260504022250 57 26 3.0 5.0 0.00 0.00 0.00 34 906.0
20260504021747 57 16 5.0 5.0 0.00 0.00 0.00 33 906.0
20260504021244 57 54 3.0 5.0 0.00 0.00 0.00 33 905.9
20260504020741 58 12 5.0 8.0 0.00 0.00 0.00 33 905.6
20260504020237 58 27 3.0 3.0 0.00 0.00 0.00 33 905.8
20260504015733 58 33 4.0 5.0 0.00 0.00 0.00 32 905.6
20260504015230 59 50 2.0 3.0 0.00 0.00 0.00 32 905.5
20260504014726 59 56 2.0 3.0 0.00 0.00 0.00 31 905.6
20260504014223 60 56 3.0 5.0 0.00 0.00 0.00 30 905.6
20260504013720 60 10 5.0 9.0 0.00 0.00 0.00 30 905.6
20260504013218 61 11 4.0 5.0 0.00 0.00 0.00 29 905.6
20260504012714 62 19 14.0 18.0 0.00 0.00 0.00 28 905.5
20260504012212 64 30 13.0 18.0 0.00 0.00 0.00 25 905.3
20260504011709 64 14 10.0 13.0 0.00 0.00 0.00 21 905.3
20260504011206 64 28 5.0 8.0 0.00 0.00 0.00 21 905.2
20260504010702 64 31 3.0 4.0 0.00 0.00 0.00 21 905.1
20260504010157 64 24 5.0 5.0 0.00 0.00 0.00 21 905.2
20260504005654 64 51 3.0 4.0 0.00 0.00 0.00 22 905.3
20260504005151 64 47 2.0 3.0 0.00 0.00 0.00 22 905.2
20260504004649 64 40 4.0 5.0 0.00 0.00 0.00 22 905.4
20260504004146 65 7 9.0 10.0 0.00 0.00 0.00 21 905.3
20260504003642 65 21 7.0 9.0 0.00 0.00 0.00 21 905.1
20260504003139 66 34 5.0 6.0 0.00 0.00 0.00 21 905.0
20260504002636 67 356 15.0 16.0 0.00 0.00 0.00 18 905.0
20260504002134 68 336 6.0 8.0 0.00 0.00 0.00 14 904.8
20260504001631 68 325 5.0 6.0 0.00 0.00 0.00 14 904.7
20260504001127 68 328 7.0 9.0 0.00 0.00 0.00 14 905.2
20260504000625 68 330 7.0 13.0 0.00 0.00 0.00 13 904.9
20260504000122 68 340 6.0 9.0 0.00 0.00 0.00 13 904.9
20260503235620 68 320 7.0 10.0 0.00 0.00 0.00 14 905.1
20260503235116 69 348 8.0 9.0 0.00 0.00 0.00 13 905.0
20260503234614 69 353 9.0 13.0 0.00 0.00 0.00 12 905.1
20260503234112 69 338 9.0 13.0 0.00 0.00 0.00 12 905.0
20260503233609 69 309 5.0 9.0 0.00 0.00 0.00 13 905.1
20260503233104 68 271 3.0 4.0 0.00 0.00 0.00 13 905.2
20260503232602 68 338 9.0 13.0 0.00 0.00 0.00 13 905.2
20260503232059 69 262 2.0 3.0 0.00 0.00 0.00 13 905.3
20260503231557 68 319 5.0 6.0 0.00 0.00 0.00 13 905.2
20260503231053 68 296 3.0 4.0 0.00 0.00 0.00 12 905.1
20260503230550 68 21 8.0 11.0 0.00 0.00 0.00 13 905.2
20260503230047 68 319 5.0 5.0 0.00 0.00 0.00 12 905.3
20260503225544 68 279 3.0 5.0 0.00 0.00 0.00 12 905.4
20260503225039 68 351 5.0 6.0 0.00 0.00 0.00 13 905.2
20260503224537 68 292 7.0 9.0 0.00 0.00 0.00 13 905.2
20260503224034 68 8 5.0 6.0 0.00 0.00 0.00 13 905.3
20260503223532 68 352 5.0 6.0 0.00 0.00 0.00 13 905.2
20260503223027 68 324 7.0 10.0 0.00 0.00 0.00 13 905.3
20260503222526 68 276 12.0 15.0 0.00 0.00 0.00 14 905.2
20260503222024 69 323 3.0 5.0 0.00 0.00 0.00 14 905.4
20260503221522 68 4 4.0 6.0 0.00 0.00 0.00 14 905.4
20260503221019 69 326 9.0 10.0 0.00 0.00 0.00 14 905.5
20260503220515 69 339 3.0 3.0 0.00 0.00 0.00 14 905.6
20260503220012 68 286 4.0 8.0 0.00 0.00 0.00 13 905.4
20260503215509 68 204 3.0 5.0 0.00 0.00 0.00 16 905.6
20260503215006 68 205 2.0 3.0 0.00 0.00 0.00 16 905.5
20260503214504 68 219 4.0 5.0 0.00 0.00 0.00 17 905.6
20260503214000 67 197 7.0 9.0 0.00 0.00 0.00 16 906.2
20260503213459 68 207 5.0 8.0 0.00 0.00 0.00 17 905.9
20260503212955 67 230 5.0 8.0 0.00 0.00 0.00 18 906.3
20260503212453 67 215 4.0 5.0 0.00 0.00 0.00 19 906.2
20260503211950 67 209 7.0 8.0 0.00 0.00 0.00 19 906.3
20260503211447 67 96 1.0 1.0 0.00 0.00 0.00 18 906.2
20260503210942 67 196 4.0 6.0 0.00 0.00 0.00 19 906.3
20260503210439 66 205 5.0 5.0 0.00 0.00 0.00 18 906.3
20260503205940 66 298 2.0 3.0 0.00 0.00 0.00 19 906.4
20260503205437 66 293 2.0 4.0 0.00 0.00 0.00 20 907.1
20260503204933 65 351 5.0 6.0 0.00 0.00 0.00 20 907.0
20260503204430 65 356 5.0 8.0 0.00 0.00 0.00 20 906.9
20260503203927 64 13 8.0 10.0 0.00 0.00 0.00 22 907.3
20260503203425 65 316 5.0 8.0 0.00 0.00 0.00 21 907.2
20260503202921 66 6 7.0 9.0 0.00 0.00 0.00 20 907.3
20260503202420 66 27 9.0 13.0 0.00 0.00 0.00 20 907.3
20260503201918 66 328 5.0 8.0 0.00 0.00 0.00 21 907.4
20260503201415 67 314 4.0 6.0 0.00 0.00 0.00 20 907.0
20260503200912 68 155 1.0 1.0 0.00 0.00 0.00 20 907.3
20260503200408 67 185 7.0 9.0 0.00 0.00 0.00 20 907.4
20260503195905 67 181 8.0 9.0 0.00 0.00 0.00 20 907.5
20260503195402 67 71 2.0 3.0 0.00 0.00 0.00 20 907.6
20260503194859 67 201 4.0 6.0 0.00 0.00 0.00 20 907.5
20260503194355 68 89 4.0 5.0 0.00 0.00 0.00 20 907.6
20260503193851 66 342 3.0 5.0 0.00 0.00 0.00 20 907.5
20260503193347 66 218 8.0 10.0 0.00 0.00 0.00 20 907.6
20260503192843 65 6 6.0 8.0 0.00 0.00 0.00 20 907.7
20260503192339 64 345 9.0 10.0 0.00 0.00 0.00 24 907.9
20260503191835 65 11 6.0 8.0 0.00 0.00 0.00 23 908.3
20260503191332 65 343 6.0 9.0 0.00 0.00 0.00 22 908.2
20260503190829 64 9 7.0 9.0 0.00 0.00 0.00 24 908.4
20260503190326 63 250 7.0 11.0 0.00 0.00 0.00 23 908.3
20260503185823 65 352 9.0 11.0 0.00 0.00 0.00 24 908.3